Airfield :
LOGIN :

Register | Disclaimer

   EN    FR    IT 

 










Legend :    VFR   Marginal VFR   IFR   Intensive IFR   Very Intensive IFR
Visi :
Ceiling :
>= 8 km
>= 3000ft
5 to 8 km
1000 to 3000 ft
1500m to 5 km
500 to 1000 ft
800 to 1500m
200 to 500 ft
< 800m
< 200 ft
Symbols :   Thunderstorms  Fog  Heavy snow  Heavy precipitations  Wind > 20 kt
SIGMETs :     Misc.  Thunderstorms  Icing  Turbulence  Mountain Waves  Volcanic Ashes







- Airport Elevation : 39 ft
- IATA code : CTA


LICC - Catania Fontanarossa

CURRENT METAR :
  • 220820Z 24007KT 210V270 9999 FEW060 27/20 Q1017

EXPIRED METARs :
  • 220750Z 24007KT 9999 FEW060 26/19 Q1017
  • 220720Z 24007KT 9999 FEW060 25/19 Q1017
  • 220650Z 23006KT 9999 FEW070 23/20 Q1016
  • 220620Z 25005KT 210V270 9999 FEW070 22/20 Q1016

TAF TAF LICC
Valid from the 22 at 06:00 until the 23 at 06:00 UTC


220500Z 2206/2306 25008KT 9999 SCT050
BECMG 2208/2210 10012KT
TEMPO 2212/2216 4000 SHRA
BECMG 2216/2218 VRB04KT
No reported NOTAMs for that airfield.



MET'MAP, your aeronautical weather chart ! - Copyright ORBIFLY December 2007 - Disclaimer

ORBIFLY MET'MAP TEAM :

Programming & Development : Alexandra Zaïnal
Concept & Development : Baudouin d'Aumeries
Co-Development & Prog : Marc-Olivier Méhu
Technical & hardware support : Manuel Goepfert

Contact : metmap@orbifly.com




SOURCES & CREDITS :

   NOAA